STARLINK-11292 [DTC]

Last updated on Mon Oct 21 2024 00:02:04 GMT+0000 (Coordinated Universal Time)

1 61203U 24171D 24293.92894961 .00003496 00000+0 25347-4 0 9991 2 61203 53.1551 150.1989 0001016 53.7179 306.3935 15.76730926 4950
UTC large
Height (km)
Speed (km/s)
/
Latitude / Longitude
Inclination (degrees)
Orbital Period (minutes)
Azimuth
Elevation
Range (km)
Doppler Factor

Next 0 passes for location: London (51.5072 / 0.1276)

Sorry there are no passes over London.